Location: Gradaro
(45.0833°N, 10.8833°E)
Time: 06:28:41
(UTC+00:00)

FENGYUN 1C DEB - Pass Details

Date: 01 July 2021
Orbit: 744 x 851 km, 99.4° (Epoch: 19 July)

Event Time Altitude Azimuth Distance (km) Brightness Sun altitude
Exits shadow 00:42:53 27° 241° (WSW) 1,528 ? -19.3°
Maximum altitude 00:44:01 29° 263° (W) 1,448 ? -19.2°
Drops below altitude 10° 00:48:32 10° 323° (NW) 2,370 ? -18.9°
Sets 00:51:09 0° 335° (NNW) 3,286 ? -18.7°
